This is the latest recevied weather packets stored in our database for station/object LRBC. If no packets are shown the sender has not sent any weather packets the latest 10 day(s).
| Time | Temp. | Humidity | Pressure | Rain* | Wind** | Luminosity | Snow |
|---|---|---|---|---|---|---|---|
| 1777630728 | 10° C | 35% | 1025 hPa | - | - | - | - |
| 1777629827 | 10° C | 35% | 1025 hPa | - | - | - | - |
| 1777628927 | 11.11° C | 32% | 1025 hPa | - | - | - | - |
| 1777628027 | 11.11° C | 32% | 1025 hPa | - | - | - | - |
| 1777627128 | 11.11° C | 35% | 1026 hPa | - | - | - | - |
| 1777626227 | 11.11° C | 35% | 1026 hPa | - | - | - | - |
| 1777625327 | 10° C | 35% | 1026 hPa | - | - | - | - |
| 1777624428 | 10° C | 35% | 1026 hPa | - | - | - | - |
| 1777623545 | 10° C | 35% | 1026 hPa | - | - | - | - |
| 1777622628 | 10° C | 35% | 1026 hPa | - | - | - | - |
| 1777621727 | 10° C | 32% | 1026 hPa | - | - | - | - |
| 1777620827 | 10° C | 32% | 1026 hPa | - | - | - | - |
| 1777619928 | 8.89° C | 46% | 1026 hPa | - | - | - | - |
| 1777619027 | 8.89° C | 46% | 1026 hPa | - | - | - | - |
| 1777618131 | 7.78° C | 46% | 1026 hPa | - | - | - | - |
| 1777617228 | 7.78° C | 46% | 1026 hPa | - | - | - | - |
| 1777616329 | 7.22° C | 53% | 1026 hPa | - | - | - | - |
| 1777615427 | 7.22° C | 53% | 1026 hPa | - | - | - | - |
| 1777614527 | 5° C | 66% | 1026 hPa | - | - | - | - |
| 1777613628 | 5° C | 66% | 1026 hPa | - | - | - | - |
| 1777612728 | 3.89° C | 65% | 1026 hPa | - | - | - | - |
| 1777611827 | 3.89° C | 65% | 1026 hPa | - | - | - | - |
| 1777610927 | 3.89° C | 65% | 1026 hPa | - | - | - | - |
| 1777610027 | 3.89° C | 65% | 1026 hPa | - | - | - | - |
| 1777609127 | 2.78° C | 70% | 1026 hPa | - | - | - | - |
* Rain since midnight (hover to see other rain measurements)
** Current wind speed in m/s (hover to see current wind gust speed)